TimeMST,TemperatureF,Dew PointF,Humidity,Sea Level PressureIn,VisibilityMPH,Wind Direction,Wind SpeedMPH,Gust SpeedMPH,PrecipitationIn,Events,Conditions,WindDirDegrees,DateUTC
12:56 AM,57.2,33.8,41,29.86,7.0,West,5.8,-,N/A,,Partly Cloudy,280,2014-03-05 07:56:00
1:56 AM,59.0,32.0,36,29.86,7.0,NW,12.7,-,N/A,,Scattered Clouds,310,2014-03-05 08:56:00
2:56 AM,51.8,33.8,50,29.87,7.0,West,3.5,-,N/A,,Partly Cloudy,260,2014-03-05 09:56:00
3:56 AM,51.8,32.0,47,29.88,7.0,North,5.8,-,N/A,,Clear,10,2014-03-05 10:56:00
4:56 AM,55.2,31.3,40,29.89,7.0,NW,5.8,-,N/A,,Clear,310,2014-03-05 11:56:00
5:56 AM,55.2,30.4,39,29.91,7.0,WNW,6.9,-,N/A,,Clear,290,2014-03-05 12:56:00
6:56 AM,55.0,29.8,38,29.94,7.0,NNW,9.2,-,N/A,,Clear,340,2014-03-05 13:56:00
7:56 AM,55.2,32.5,42,29.98,7.0,NW,9.2,-,N/A,,Clear,320,2014-03-05 14:56:00
8:56 AM,58.3,31.5,36,30.00,7.0,NNE,6.9,-,N/A,,Clear,20,2014-03-05 15:56:00
9:56 AM,61.7,31.5,32,30.01,7.0,North,1.2,-,N/A,,Clear,350,2014-03-05 16:56:00
10:56 AM,63.7,28.4,26,29.99,7.0,North,12.7,-,N/A,,Partly Cloudy,350,2014-03-05 17:56:00
11:56 AM,64.9,27.7,25,29.99,7.0,North,10.4,-,N/A,,Partly Cloudy,10,2014-03-05 18:56:00
12:56 PM,66.4,27.0,23,29.98,7.0,NNE,8.1,17.3,N/A,,Partly Cloudy,30,2014-03-05 19:56:00
1:56 PM,67.5,26.2,21,29.96,7.0,NNE,9.2,-,N/A,,Partly Cloudy,20,2014-03-05 20:56:00
2:56 PM,68.9,25.5,20,29.97,7.0,North,10.4,19.6,N/A,,Partly Cloudy,360,2014-03-05 21:56:00
3:56 PM,69.3,25.7,20,29.97,7.0,NE,5.8,-,N/A,,Scattered Clouds,50,2014-03-05 22:56:00
4:56 PM,68.2,24.8,20,29.98,12.0,ENE,5.8,-,N/A,,Clear,70,2014-03-05 23:56:00
5:56 PM,66.2,25.9,22,30.00,7.0,ENE,4.6,-,N/A,,Clear,60,2014-03-06 00:56:00
6:56 PM,63.3,25.3,24,30.03,7.0,East,5.8,-,N/A,,Clear,80,2014-03-06 01:56:00
7:56 PM,61.5,24.6,24,30.06,7.0,East,6.9,-,N/A,,Partly Cloudy,100,2014-03-06 02:56:00
8:56 PM,57.9,26.6,30,30.09,12.0,East,5.8,-,N/A,,Clear,90,2014-03-06 03:56:00
9:56 PM,57.4,27.3,32,30.10,12.0,SE,2.3,-,N/A,,Clear,140,2014-03-06 04:56:00
10:56 PM,55.4,28.0,35,30.12,11.0,South,4.6,-,N/A,,Partly Cloudy,190,2014-03-06 05:56:00
11:56 PM,55.4,30.2,38,30.11,7.0,SE,8.1,-,N/A,,Scattered Clouds,140,2014-03-06 06:56:00